Overview Statistics Trail Chart Weather Telemetry Raw packets
 

This is the latest recevied weather packets stored in our database for station/object WABO. If no packets are shown the sender has not sent any weather packets the latest 10 day(s).

<< 1 2 3 4 5 6 >>
Time Temp. Humidity Pressure Rain* Wind** Luminosity Snow
1788260382 27.22° C 84% 1 hPa 0 mm - - -
1788258421 27.22° C 84% 1 hPa 0 mm - - -
1788256269 28.89° C 74% 1 hPa 0 mm - - -
1788254202 28.89° C 74% 1 hPa 0 mm - - -
1788250219 30° C 70% 1 hPa 0 mm - - -
1788248237 31.11° C 66% 1 hPa 0 mm - - -
1788246246 32.22° C 63% 1 hPa 0 mm - - -
1788244194 32.22° C 63% 1 hPa 0 mm - - -
1788242174 32.22° C 63% 1 hPa 0 mm - - -
1788240211 32.22° C 63% 1 hPa 0 mm - - -
1788238248 32.78° C 59% 1 hPa 0 mm - - -
1788236268 32.78° C 59% 1 hPa 0 mm - - -
1788234304 32.78° C 59% 1 hPa 0 mm - - -
1788232342 32.22° C 63% 1 hPa 0 mm - - -
1788230374 32.22° C 63% 1 hPa 0 mm - - -
1788228408 32.22° C 63% 1 hPa 0 mm - - -
1788226442 27.78° C 79% 1 hPa 0 mm - - -
1788224475 27.78° C 79% 1 hPa 0 mm - - -
1788222499 26.11° C 89% 1 hPa 0 mm - - -
1788220552 26.11° C 89% 1 hPa 0 mm - - -
1788218607 26.11° C 89% 1 hPa 0 mm - - -
1788216641 25° C 94% 1 hPa 0 mm - - -
1788214705 25° C 94% 1 hPa 0 mm - - -
1788212771 25° C 94% 1 hPa 0 mm - - -
1788210818 25° C 94% 1 hPa 0 mm - - -

* Rain latest hour (hover to see other rain measurements)
** Current wind speed in m/s (hover to see current wind gust speed)